[[{"header":{"parameterUnit":"m.s-1","parameterCategory":1,"la1":30.2991,"la2":30.254,"lo1":-89.0895,"lo2":-89.0444,"dy":0.0017,"dx":0.0017,"nx":28,"ny":28,"refTime":"2025-12-14T09:00:00:Z","depth":0,"parameterNumber":2,"parameterNumberName":"U-component_of_WINDS"},"data":[0,0,0,0,0,0,0,0,0,0,0,0,0,0,0,0,0,0,0,0,0,0,0,0,0,0,0,0,0,0,0,0,0,0,0,0,0,0,0,0,0,0,0,0,0,0,0,0,0,0,0,0,0,0,0,0,0,0,-2.1025,-2.1026,0,-2.1098,-2.1099,-2.11,-2.1056,-2.1054,-2.1052,-2.105,-2.1127,-2.113,-2.1134,0,0,0,0,0,0,0,0,0,0,0,0,0,-2.0847,-2.0851,-2.1025,-2.1026,-2.1027,-2.1098,-2.1099,-2.11,-2.1057,-2.1054,-2.1052,-2.1049,-2.1125,-2.113,-2.1135,0,0,0,0,0,0,0,0,0,0,0,0,0,-2.0923,-2.0852,-2.1025,-2.1014,-2.1013,-2.1098,-2.1099,-2.1101,-2.1057,-2.1054,-2.1051,-2.1048,-2.1124,-2.113,-2.1135,-2.1236,0,0,-2.1154,-2.1156,0,0,0,0,0,0,0,0,-2.0919,-2.093,-2.1014,-2.1015,-2.1015,-2.1065,-2.1065,-2.1146,-2.1058,-2.1041,-2.105,-2.1046,-2.1109,-2.1116,-2.1136,-2.1239,-2.1242,-2.1154,-2.1158,-2.1161,-2.1162,0,0,0,0,0,0,0,-2.0914,-2.0926,-2.1054,-2.1016,-2.1016,-2.1005,-2.1012,-2.108,-2.1092,-2.1042,-2.1039,-2.1048,-2.1108,-2.1131,-2.1138,-2.1244,-2.1154,-2.1159,-2.1163,-2.1166,-2.1431,-2.1434,0,0,0,0,0,0,-2.0909,-2.0922,-2.1052,-2.1056,-2.0958,-2.1011,-2.1019,-2.1052,-2.1091,-2.1094,-2.1051,-2.1046,-2.1122,-2.1131,-2.114,-2.126,-2.116,-2.1166,-2.117,-2.1428,-2.1432,-2.1436,0,0,0,0,0,0,-2.0906,-2.0921,-2.1049,-2.0989,-2.1004,-2.1017,-2.1055,-2.1055,-2.1078,-2.1097,-2.1099,-2.1072,-2.112,-2.1132,-2.1212,-2.1262,-2.1169,-2.1174,-2.1424,-2.1429,-2.1434,-2.1501,0,0,0,0,0,0,-2.0901,-2.092,-2.0959,-2.099,-2.1007,-2.112,-2.1058,-2.1059,-2.1088,-2.1082,-2.1118,-2.112,-2.1118,-2.1203,-2.1218,-2.1269,-2.1179,-2.1419,-2.1426,-2.1432,-2.1494,-2.1508,-2.1519,0,0,0,0,0,-2.0894,-2.0975,-2.0961,-2.0977,-2.1056,-2.1123,-2.1133,-2.1128,-2.1092,-2.1131,-2.1143,-2.1119,-2.1254,-2.1212,-2.1228,-2.1282,-2.1416,-2.1424,-2.1432,-2.1489,-2.1505,-2.1519,0,0,0,0,0,0,-2.095,-2.0979,-2.0964,-2.1056,-2.1087,-2.1115,-2.1164,-2.1146,-2.1188,-2.1181,-2.1174,-2.1182,-2.1266,-2.1281,-2.1234,-2.138,-2.1329,-2.1341,-2.1367,-2.1383,-2.1395,-2.139,-2.1184,0,0,0,0,0,-2.0973,-2.1025,-2.1047,-2.1127,-2.1143,-2.1151,-2.118,-2.1174,-2.1206,-2.1219,-2.1237,-2.1269,-2.1318,-2.1351,-2.1398,-2.1495,-2.1502,-2.154,-2.1552,-2.1562,-2.1573,-2.1625,-2.1642,-2.1461,-2.1461,-2.1461,0,0,-2.1022,-2.1044,-2.1077,-2.1139,-2.1162,-2.1216,-2.1162,-2.1222,-2.1262,-2.1228,-2.1304,-2.1319,-2.1354,-2.1443,-2.1483,-2.1459,-2.1624,-2.1572,-2.158,-2.1586,-2.1635,-2.1652,-2.1668,-2.1467,-2.1466,-2.1465,0,0,-2.1138,-2.1159,-2.1228,-2.1252,-2.1287,-2.1292,-2.1308,-2.1338,-2.1346,-2.1423,-2.1398,-2.1445,-2.153,-2.1556,-2.1581,-2.1704,-2.1684,-2.1719,-2.1786,-2.1837,-2.1851,-2.1864,-2.1908,-2.1924,-2.1729,-2.173,-2.173,0,-2.1194,-2.1274,-2.1266,-2.1327,-2.1355,-2.1325,-2.1395,-2.1418,-2.1467,-2.1487,-2.1458,-2.1564,-2.1586,-2.168,-2.171,-2.1731,-2.175,-2.1717,-2.1849,-2.1862,-2.1874,-2.1916,-2.1933,-2.1734,-2.1733,-2.1733,-2.1732,0,-2.1341,-2.1397,-2.1448,-2.1496,-2.1529,-2.1594,-2.1596,-2.163,-2.162,-2.1627,-2.1705,-2.173,-2.178,-2.1802,-2.1793,-2.1895,-2.1879,-2.185,-2.1799,-2.1895,-2.1935,-2.1951,-2.174,-2.1738,-2.1737,-2.1736,0,0,-2.1497,-2.1538,-2.1557,-2.1577,-2.1613,-2.1656,-2.1719,-2.1768,-2.1798,-2.1832,-2.1885,-2.1957,-2.193,-2.1958,-2.1951,-2.1996,-2.2092,-2.1961,-2.1962,-2.1985,-2.2206,-2.2229,-2.2248,-2.2078,-2.2081,-2.2083,-2.2203,0,-2.1616,-2.1727,-2.172,-2.1824,-2.1875,-2.1846,-2.1901,-2.1929,-2.1937,-2.1981,-2.199,-2.2041,-2.2001,-2.2018,-2.206,-2.2072,-2.2137,-2.2063,-2.2128,-2.213,-2.2122,-2.2268,-2.2293,-2.2405,-2.2219,-2.2221,-2.2223,0,-2.177,-2.1809,-2.1918,-2.1945,-2.1966,-2.2016,-2.2059,-2.2102,-2.2132,-2.2135,-2.2165,-2.215,-2.2214,-2.216,-2.2247,-2.2197,-2.2223,-2.2232,-2.2236,-2.2244,-2.2184,-2.2281,-2.2441,-2.2458,-2.2248,-2.2246,-2.2244,0,-2.1874,-2.1953,-2.2028,-2.2046,-2.208,-2.2115,-2.2131,-2.2158,-2.2187,-2.2225,-2.2244,-2.2289,-2.2314,-2.2349,-2.2347,-2.2308,-2.2436,-2.2382,-2.244,-2.244,-2.247,-2.2468,-2.2638,-2.2484,-2.2484,-2.2484,-2.2483,0,-2.2008,-2.2076,-2.2075,-2.2122,-2.2196,-2.2188,-2.2262,-2.2273,-2.2298,-2.2346,-2.2323,-2.2368,-2.2362,-2.2408,-2.2406,-2.2479,-2.249,-2.2494,-2.2493,-2.2497,-2.2497,-2.2515,-2.2508,-2.2488,-2.2487,-2.2486,-2.2486,0,-2.2138,-2.214,-2.222,-2.2244,-2.2252,-2.2306,-2.2326,-2.237,-2.2375,-2.2436,-2.245,-2.2457,-2.251,-2.251,-2.2571,-2.2569,-2.2658,-2.2648,-2.2648,-2.2647,-2.2705,-2.27,-2.2893,-2.2918,-2.2748,-2.2749,-2.2751,0,-2.2225,-2.2276,-2.2305,-2.2335,-2.2353,-2.2402,-2.2431,-2.2424,-2.2456,-2.2493,-2.2533,-2.2582,-2.2622,-2.2707,-2.2718,-2.2763,-2.2755,-2.2819,-2.2762,-2.2763,-2.2757,-2.2754,-2.2759,-2.2831,-2.2833,-2.2835,-2.2836,0,-2.2378,-2.2376,-2.2419,-2.2463,-2.2498,-2.2532,-2.2564,-2.2589,-2.2585,-2.2622,-2.2675,-2.2706,-2.2766,-2.2816,-2.2859,-2.2875,-2.2855,-2.2853,-2.2869,-2.2875,-2.2873,-2.2875,-2.268,-2.285,-2.2848,-2.2847,-2.2846,-2.2846,-2.249,-2.2534,-2.2561,-2.2609,-2.2632,-2.2661,-2.2703,-2.2713,-2.2756,-2.2805,-2.2797,-2.2857,-2.2884,-2.294,-2.296,-2.3005,-2.2983,-2.3006,-2.3012,-2.3018,-2.3025,-2.2864,-2.3013,-2.3013,-2.3012,-2.3012,-2.3012,0,-2.2643,-2.2658,-2.2703,-2.2747,-2.2785,-2.2761,-2.2794,-2.2828,-2.288,-2.2907,-2.2946,-2.3006,-2.3054,-2.3068,-2.3114,-2.3147,-2.3139,-2.316,-2.3158,-2.3162,-2.3042,-2.3024,-2.3166,-2.3166,-2.3166,-2.3166,-2.3166,-2.3165,-2.2727,-2.28,-2.2801,-2.2885,-2.29,-2.2957,-2.2978,-2.3004,-2.3026,-2.3094,-2.3133,-2.3142,-2.3163,-2.321,-2.3253,-2.3256,-2.3274,-2.3299,-2.3298,-2.3186,-2.3171,-2.3156,-2.3139,-2.3302,-2.3303,-2.3414,-2.3415,-2.3416]},{"header":{"parameterUnit":"m.s-1","parameterCategory":1,"la1":30.2991,"la2":30.254,"lo1":-89.0895,"lo2":-89.0444,"dy":0.0017,"dx":0.0017,"nx":28,"ny":28,"refTime":"2025-12-14T09:00:00:Z","depth":0,"parameterNumber":3,"parameterNumberName":"V-component_of_WINDS"},"data":[0,0,0,0,0,0,0,0,0,0,0,0,0,0,0,0,0,0,0,0,0,0,0,0,0,0,0,0,0,0,0,0,0,0,0,0,0,0,0,0,0,0,0,0,0,0,0,0,0,0,0,0,0,0,0,0,0,0,-9.1889,-9.1891,0,-9.2027,-9.2029,-9.203,-9.1925,-9.192,-9.1916,-9.1912,-9.2046,-9.2054,-9.2062,0,0,0,0,0,0,0,0,0,0,0,0,0,-9.1528,-9.1536,-9.1889,-9.1891,-9.1893,-9.2027,-9.2029,-9.2031,-9.1926,-9.192,-9.1915,-9.191,-9.2044,-9.2053,-9.2062,0,0,0,0,0,0,0,0,0,0,0,0,0,-9.1677,-9.1538,-9.1889,-9.1857,-9.1855,-9.2027,-9.2029,-9.2031,-9.1927,-9.192,-9.1913,-9.1907,-9.2041,-9.2052,-9.2064,-9.2272,0,0,-9.21,-9.2105,0,0,0,0,0,0,0,0,-9.1669,-9.1691,-9.186,-9.1859,-9.1858,-9.1952,-9.1951,-9.2112,-9.1929,-9.19,-9.1912,-9.1904,-9.202,-9.2033,-9.2074,-9.2279,-9.2284,-9.2101,-9.2108,-9.2113,-9.2116,0,0,0,0,0,0,0,-9.1659,-9.1684,-9.1944,-9.1862,-9.1861,-9.1833,-9.1847,-9.1981,-9.1996,-9.1902,-9.1894,-9.1912,-9.2018,-9.2063,-9.2076,-9.2286,-9.21,-9.2111,-9.2118,-9.2123,-9.2668,-9.2675,0,0,0,0,0,0,-9.1653,-9.1676,-9.1939,-9.1948,-9.1745,-9.1845,-9.186,-9.1929,-9.1994,-9.1998,-9.1918,-9.1907,-9.2046,-9.2063,-9.208,-9.2329,-9.2113,-9.2124,-9.213,-9.2661,-9.267,-9.2678,0,0,0,0,0,0,-9.1645,-9.1677,-9.1934,-9.181,-9.1841,-9.1859,-9.1936,-9.1935,-9.1979,-9.2007,-9.2008,-9.1961,-9.2041,-9.2064,-9.2226,-9.2332,-9.2129,-9.214,-9.2652,-9.2664,-9.2674,-9.2828,0,0,0,0,0,0,-9.1635,-9.1675,-9.1756,-9.1813,-9.1848,-9.2079,-9.1943,-9.1943,-9.2001,-9.1987,-9.2048,-9.2051,-9.2038,-9.2209,-9.2237,-9.2344,-9.2149,-9.2643,-9.2657,-9.267,-9.2813,-9.2843,-9.2868,0,0,0,0,0,-9.1623,-9.1793,-9.1761,-9.1793,-9.195,-9.2086,-9.2105,-9.2088,-9.201,-9.209,-9.2108,-9.2049,-9.2316,-9.2226,-9.2258,-9.237,-9.2636,-9.2653,-9.2669,-9.2801,-9.2837,-9.2867,0,0,0,0,0,0,-9.1746,-9.18,-9.1765,-9.1959,-9.2019,-9.2068,-9.2169,-9.2127,-9.2209,-9.2193,-9.2166,-9.218,-9.235,-9.2376,-9.2275,-9.2574,-9.2463,-9.2487,-9.2552,-9.2587,-9.2613,-9.2604,-9.2159,0,0,0,0,0,-9.1796,-9.1904,-9.1944,-9.2111,-9.2143,-9.2151,-9.2209,-9.2191,-9.2251,-9.2276,-9.2305,-9.2364,-9.246,-9.2525,-9.2615,-9.2816,-9.2827,-9.2908,-9.2936,-9.2958,-9.2979,-9.3086,-9.3123,-9.2733,-9.2733,-9.2733,0,0,-9.19,-9.1942,-9.2012,-9.2137,-9.2181,-9.2291,-9.2173,-9.2295,-9.2376,-9.2293,-9.2449,-9.2472,-9.2536,-9.2718,-9.2799,-9.2744,-9.3089,-9.2979,-9.2997,-9.3006,-9.3107,-9.3144,-9.3177,-9.2744,-9.2742,-9.2741,0,0,-9.2145,-9.2189,-9.2333,-9.238,-9.245,-9.2454,-9.2489,-9.2544,-9.2558,-9.2713,-9.2654,-9.2748,-9.2916,-9.2963,-9.301,-9.3273,-9.3222,-9.3303,-9.3446,-9.3551,-9.3582,-9.3609,-9.3703,-9.3737,-9.3324,-9.3324,-9.3325,0,-9.2265,-9.2431,-9.2411,-9.2539,-9.2594,-9.2527,-9.2671,-9.2717,-9.2812,-9.2851,-9.2788,-9.2997,-9.3035,-9.3227,-9.3292,-9.3332,-9.3369,-9.3296,-9.358,-9.3607,-9.3631,-9.372,-9.3756,-9.3334,-9.3333,-9.3332,-9.3331,0,-9.2575,-9.2691,-9.2798,-9.2894,-9.2962,-9.3097,-9.3095,-9.3166,-9.3142,-9.3152,-9.3311,-9.3354,-9.3452,-9.3496,-9.3473,-9.3685,-9.3649,-9.3584,-9.3471,-9.3679,-9.3762,-9.3796,-9.3347,-9.3344,-9.3341,-9.3339,0,0,-9.2902,-9.2986,-9.3025,-9.3068,-9.3139,-9.3228,-9.3358,-9.3457,-9.3517,-9.3584,-9.3693,-9.3836,-9.3776,-9.3829,-9.381,-9.3902,-9.4107,-9.3825,-9.3826,-9.3876,-9.4343,-9.4392,-9.4432,-9.4074,-9.408,-9.4085,-9.4338,0,-9.3151,-9.3382,-9.3368,-9.3584,-9.369,-9.3627,-9.3741,-9.3796,-9.3809,-9.3899,-9.3912,-9.4014,-9.3928,-9.3959,-9.4047,-9.4064,-9.4201,-9.4045,-9.4172,-9.4177,-9.4159,-9.4476,-9.4528,-9.4764,-9.437,-9.4376,-9.438,0,-9.3473,-9.3554,-9.3782,-9.3837,-9.3881,-9.3984,-9.4073,-9.416,-9.422,-9.4223,-9.4282,-9.4248,-9.4377,-9.4262,-9.4439,-9.4334,-9.4385,-9.4401,-9.4409,-9.4421,-9.4291,-9.4495,-9.4839,-9.4875,-9.4431,-9.4427,-9.4423,0,-9.3689,-9.3854,-9.4012,-9.405,-9.4119,-9.4193,-9.4224,-9.4278,-9.4338,-9.4414,-9.4452,-9.4542,-9.4591,-9.466,-9.465,-9.4567,-9.4831,-9.4714,-9.4835,-9.4836,-9.4894,-9.489,-9.5251,-9.4927,-9.4926,-9.4926,-9.4925,0,-9.3969,-9.4111,-9.411,-9.4207,-9.4363,-9.4344,-9.4499,-9.4521,-9.457,-9.4668,-9.4618,-9.4711,-9.4692,-9.4784,-9.4777,-9.4925,-9.4947,-9.4951,-9.4948,-9.4956,-9.4956,-9.4989,-9.4973,-9.4935,-9.4933,-9.4931,-9.493,0,-9.4237,-9.4243,-9.441,-9.4462,-9.4478,-9.4591,-9.4634,-9.4725,-9.4733,-9.4858,-9.4887,-9.49,-9.5005,-9.5002,-9.5122,-9.5116,-9.5298,-9.5275,-9.5279,-9.5274,-9.5395,-9.5384,-9.579,-9.5842,-9.5485,-9.5488,-9.5491,0,-9.4416,-9.4523,-9.4587,-9.4651,-9.4688,-9.4791,-9.4852,-9.4837,-9.4902,-9.4979,-9.506,-9.5162,-9.5242,-9.5414,-9.5432,-9.5523,-9.5502,-9.5638,-9.5515,-9.552,-9.5504,-9.5498,-9.5508,-9.5662,-9.5666,-9.5669,-9.5672,0,-9.4732,-9.4729,-9.4821,-9.4914,-9.4989,-9.5061,-9.5127,-9.5181,-9.5173,-9.5248,-9.5357,-9.542,-9.5543,-9.5644,-9.5731,-9.576,-9.5715,-9.5711,-9.5743,-9.5753,-9.5751,-9.5754,-9.5345,-9.5701,-9.5698,-9.5696,-9.5695,-9.5693,-9.496,-9.5053,-9.5113,-9.5217,-9.5265,-9.5328,-9.5416,-9.5436,-9.5527,-9.5628,-9.5612,-9.5734,-9.579,-9.5903,-9.594,-9.6033,-9.5985,-9.6032,-9.6044,-9.6056,-9.607,-9.5736,-9.6049,-9.6048,-9.6047,-9.6046,-9.6046,0,-9.5274,-9.531,-9.5405,-9.55,-9.5581,-9.5533,-9.5604,-9.5674,-9.5782,-9.5839,-9.592,-9.6045,-9.6142,-9.6169,-9.6262,-9.6332,-9.6313,-9.6357,-9.6351,-9.6359,-9.6108,-9.607,-9.637,-9.637,-9.637,-9.637,-9.637,-9.637,-9.5447,-9.5602,-9.5606,-9.5784,-9.5817,-9.5938,-9.5982,-9.6039,-9.6084,-9.6227,-9.6309,-9.6326,-9.637,-9.6466,-9.6553,-9.6558,-9.6594,-9.6647,-9.6643,-9.6409,-9.6376,-9.6345,-9.631,-9.6655,-9.6655,-9.6886,-9.6888,-9.689]}]]